Regional Weather Roundup
Issued by NWS Albany, NY

Home | Current Version | Previous Version | Text Only | Print | Product List | Glossary On
Versions: 1 2 3 4 5 6 7 8 9 10 11 12 13 14 15 16 17 18 19 20 21 22 23 24 25 26 27 28 29 30 31 32 33 34 35 36 37 38 39 40 41 42 43 44 45 46
000
ASUS41 KALY 230110
RWRALY

NEW YORK STATE HOURLY WEATHER ROUNDUP
NATIONAL WEATHER SERVICE ALBANY NY
800 PM EST MON DEC 22 2014

NOTE: "FAIR" INDICATES FEW OR NO CLOUDS BELOW 12,000 FEET WITH NO
SIGNIFICANT WEATHER AND/OR NO OBSTRUCTIONS TO VISIBILITY.

NYZ032-033-038>043-046>054-057>066-NYZ062>081-230200-
EAST


CITY           SKY/WX    TMP DP  RH WIND       PRES   REMARKS
ALBANY         CLOUDY    34  27  75 N3        30.28R
GLENS FALLS    CLOUDY    32  26  78 CALM      30.27F
POUGHKEEPSIE   CLOUDY    38  32  79 N3        30.24F
NEWBURGH       CLOUDY    36  36 100 CALM      30.24F
MONTGOMERY     CLOUDY    37  34  89 NE7       30.22F WCI  32
WHITE PLAINS   DRIZZLE   42  40  92 E9G21     30.21F FOG
ISLIP          CLOUDY    45  40  82 NE7       30.21F
NEW YORK CITY  CLOUDY    45  40  82 NE12      30.23R
CENTRAL PARK   CLOUDY    44  39  82 E6        30.25R
$$

NYZ005>009-017-018-044>046-055-056-230200-
CENTRAL


CITY           SKY/WX    TMP DP  RH WIND       PRES   REMARKS
FULTON         PTCLDY    34  28  79 SE5       30.16R WCI  30
SYRACUSE       MOCLDY    32  28  85 E10       30.17R WCI  24
ROME           CLOUDY    34  31  88 SE8       30.22R WCI  27
ELMIRA         CLOUDY    36  26  67 CALM      30.13F
BINGHAMTON     CLOUDY    33  32  96 SE8       30.12F FOG     WCI  26
MONTICELLO     CLOUDY    34  34 100 E8        30.19S WCI  27
$$

NYZ026>034-041>043-230200-
NORTH


CITY           SKY/WX    TMP DP  RH WIND       PRES   REMARKS
WATERTOWN      MOCLDY    29  23  78 E6        30.18S WCI  23
FORT DRUM      NOT AVBL
MASSENA        CLOUDY    22  17  81 E12       30.28S WCI  10
SARANAC LAKE   CLOUDY    24  21  88 NE6       30.16F WCI  17
PLATTSBURGH    CLOUDY    23  18  81 N3        30.31S
$$

NYZ001>004-010>016-019>021-230200-
WEST


CITY           SKY/WX    TMP DP  RH WIND       PRES   REMARKS
NIAGARA FALLS  CLOUDY    35  27  72 SE8       30.04F WCI  29
BUFFALO        CLOUDY    35  26  69 SE6       30.04F WCI  30
DUNKIRK        CLOUDY    36  27  69 S8        30.02F WCI  30
JAMESTOWN      CLOUDY    30  25  80 SE8       30.00F WCI  23
WELLSVILLE     CLOUDY    30  24  78 SE12      30.06F WCI  20
ROCHESTER      MOCLDY    34  26  72 S6        30.10F WCI  29
PENN YAN       CLOUDY    34  25  69 S5        30.12F WCI  30
$$

             KEY
       WCI = WIND CHILL INDEX
       VSB = VISIBILITY
       HX  = HEAT INDEX
$$



USA.gov is the U.S. government's official web portal to all federal, state and local government web resources and services.